sat.trackr.live / text

‹ back to catalog

STARLINK-3758

NORAD 52297 · 2022-041AN

PAYLOAD ACTIVE UNKNOWN

§ Identity

Operator
Country
US
Launch date
2022-04-21
Launch site
AFETR
Launch vehicle
Mass (kg)
RCS (m²)

Purposes: comms

External: N2YO · Heavens-Above · Gunter

§ Orbital elements

Epoch: 2026-05-25T03:04:30.285120Z

Period
95.44 min
Inclination
53.2138°
Eccentricity
0.0001407
Mean motion
15.08820681 rev/d
Perigee alt
538.8 km
Apogee alt
540.8 km
Semi-major
6,917.9 km
B*
2.9258e-4
RAAN
115.9754°
Arg perigee
74.3922°
Mean anomaly
285.7225°
Rev number
22,604

§ Raw data

STARLINK-37581 52297U 22041AN  26145.12812830  .00004369  00000+0  29258-3 0  99972 52297  53.2138 115.9754 0001407  74.3922 285.7225 15.08820681226044

JSON: /api/v1/satellites/52297 · /tle

For live sub-satellite position, see the globe view (requires WebGL).

§ Visibility from observer

Set your observer location to see the next 7 days of passes ≥ 10°. The values pass through the URL so the page stays shareable.

No JS? Fill the form by hand. The geolocation button needs JavaScript.